TimePDT,TemperatureF,Dew PointF,Humidity,Sea Level PressureIn,VisibilityMPH,Wind Direction,Wind SpeedMPH,Gust SpeedMPH,PrecipitationIn,Events,Conditions,WindDirDegrees,DateUTC
12:53 AM,60.1,32.0,35,30.18,10.0,ENE,8.1,-,N/A,,Clear,70,2012-10-04 07:53:00
1:53 AM,59.0,30.9,35,30.16,10.0,East,5.8,-,N/A,,Clear,100,2012-10-04 08:53:00
2:53 AM,50.0,39.9,68,30.17,10.0,WNW,6.9,-,N/A,,Clear,290,2012-10-04 09:53:00
3:53 AM,48.9,39.9,71,30.17,10.0,West,9.2,-,N/A,,Clear,270,2012-10-04 10:53:00
4:53 AM,50.0,37.0,61,30.16,10.0,NW,6.9,-,N/A,,Clear,310,2012-10-04 11:53:00
5:53 AM,50.0,36.0,59,30.17,10.0,WNW,5.8,-,N/A,,Clear,290,2012-10-04 12:53:00
6:53 AM,48.0,36.0,63,30.17,10.0,WNW,5.8,-,N/A,,Clear,290,2012-10-04 13:53:00
7:53 AM,50.0,36.0,59,30.18,10.0,WNW,5.8,-,N/A,,Clear,290,2012-10-04 14:53:00
8:53 AM,52.0,36.0,54,30.19,10.0,NW,6.9,-,N/A,,Clear,310,2012-10-04 15:53:00
9:53 AM,55.9,37.0,49,30.19,10.0,WNW,8.1,-,N/A,,Clear,300,2012-10-04 16:53:00
10:53 AM,61.0,39.0,44,30.19,10.0,West,8.1,-,N/A,,Clear,280,2012-10-04 17:53:00
11:53 AM,68.0,30.0,24,30.18,10.0,East,17.3,25.3,N/A,,Clear,100,2012-10-04 18:53:00
12:53 PM,71.1,26.1,19,30.16,10.0,East,23.0,28.8,N/A,,Clear,90,2012-10-04 19:53:00
1:53 PM,71.1,25.0,18,30.16,10.0,ENE,19.6,28.8,N/A,,Clear,70,2012-10-04 20:53:00
2:53 PM,73.0,24.1,16,30.15,10.0,ENE,15.0,-,N/A,,Partly Cloudy,70,2012-10-04 21:53:00
3:53 PM,71.6,24.8,17,30.15,10.0,East,18.4,-,N/A,,Partly Cloudy,80,2012-10-04 22:53:00
4:53 PM,71.6,23.0,16,30.15,10.0,East,19.6,24.2,N/A,,Scattered Clouds,80,2012-10-04 23:53:00
5:53 PM,69.8,24.8,18,30.16,10.0,East,17.3,25.3,N/A,,Scattered Clouds,80,2012-10-05 00:53:00
6:53 PM,64.4,26.6,24,30.17,10.0,East,11.5,-,N/A,,Scattered Clouds,90,2012-10-05 01:53:00
7:53 PM,63.0,27.0,26,30.17,10.0,East,6.9,-,N/A,,Partly Cloudy,80,2012-10-05 02:53:00
8:53 PM,61.0,30.0,31,30.17,10.0,ENE,6.9,-,N/A,,Clear,70,2012-10-05 03:53:00
9:53 PM,62.1,27.0,26,30.18,10.0,ENE,10.4,-,N/A,,Partly Cloudy,60,2012-10-05 04:53:00
10:53 PM,62.1,26.1,25,30.18,10.0,NE,10.4,-,N/A,,Partly Cloudy,50,2012-10-05 05:53:00
11:53 PM,61.0,26.1,26,30.20,10.0,NNE,5.8,-,N/A,,Clear,20,2012-10-05 06:53:00